Regional Weather Roundup
Issued by NWS

Home | Current Version | Previous Version | Graphics & Text | Print | Product List | Glossary On
Versions: 1 2 3 4 5 6 7 8 9 10 11 12 13 14 15 16 17 18 19 20 21 22 23 24 25 26 27 28 29 30 31 32 33 34 35 36 37 38 39 40 41 42 43 44 45 46 47 48 49 50
000
ASUS43 KMPX 171901
RWRMN
WEATHER ROUNDUP FOR MINNESOTA
NATIONAL WEATHER SERVICE TWIN CITIES/CHANHASSEN MN
200 PM CDT THU APR 17 2014


NOTE: "FAIR" INDICATES FEW OR NO CLOUDS BELOW 12,000 FEET WITH NO
SIGNIFICANT WEATHER AND/OR OBSTRUCTIONS TO VISIBILITY. N/A MEANS
CURRENT SKY AND/OR WEATHER CONDITIONS ARE NOT AVAILABLE.

MNZ060>063-068>070-172000-
   Twin Cities Metro

CITY           SKY/WX    TMP DP  RH WIND       PRES   REMARKS
TWIN CITIES    CLOUDY    36  28  73 NW10      30.28R
ST PAUL        CLOUDY    38  28  67 N8        30.28S
CRYSTAL        CLOUDY    36  24  62 NW7       30.27R
BLAINE         PTSUNNY   37  27  65 N10       30.26S
EDEN PRAIRIE   CLOUDY    37  26  64 NW6       30.27R
LAKEVILLE      CLOUDY    34  27  75 NW10      30.26S WCI  26
SOUTH ST PAUL  CLOUDY    39  28  66 NW5       30.27S
LAKE ELMO      CLOUDY    37  30  75 NW8       30.27R
$$
MNZ001>005-007-008-013>017-022>024-027-028-172000-
   Northwest Minnesota

CITY           SKY/WX    TMP DP  RH WIND       PRES   REMARKS
BEMIDJI        SUNNY     40   3  21 NW13      30.26S
HALLOCK        CLOUDY    37   5  25 W7        30.33F
ROSEAU         SUNNY     37   1  22 CALM      30.31F
WARROAD        SUNNY     36  10  35 E9        30.32F
THIEF RVR FALL SUNNY     37   7  28 NW7       30.31F
CROOKSTON      SUNNY     39  12  33 NW8       30.33S
FOSSTON        SUNNY     39  16  38 N8        30.29F
DETROIT LAKES  SUNNY     39  12  33 N8        30.28S
MOORHEAD       SUNNY     39  12  33 NW3       30.32F
PARK RAPIDS    SUNNY     41   3  20 VRB5G20   30.24S
$$
MNZ006-009>011-018-025>026-172000-
   North Central Minnesota

CITY           SKY/WX    TMP DP  RH WIND       PRES   REMARKS
BAUDETTE       SUNNY     37  12  35 N14       30.29F
FLAG ISLAND    SUNNY     34   7  32 N9        30.31F WCI  26
INTL FALLS     MOSUNNY   37  19  48 N12       30.27F
WASKISH        MOSUNNY   41  18  38 CALM      30.27S
BIG FORK       CLOUDY    37  19  48 N9        30.26R
LONGVILLE      MOSUNNY   41  18  38 N7        30.24S
GRAND RAPIDS   PTSUNNY   37  19  48 N10       30.24R
CRANE LAKE     CLOUDY    32  25  74 N6        30.29R WCI  26
ORR            CLOUDY    34  21  60 NW6       30.23S WCI  29
COOK           CLOUDY    34  23  64 N7        30.25S WCI  28
$$
MNZ012-019>021-037-172000-
   Northeast Minnesota

CITY           SKY/WX    TMP DP  RH WIND       PRES   REMARKS
DULUTH         CLOUDY    35  23  61 NW12G20   30.21R WCI  27
ELY            FLURRIES  30  23  74 N6        30.22R WCI  24
HIBBING        CLOUDY    37  22  54 NW12      30.23S
EVELETH        CLOUDY    34  23  64 NW13      30.24R WCI  25
DULUTH HARBOR  CLOUDY    37  27  65 CALM      30.25S
TWO HARBORS    CLOUDY    36  23  60 NW8       30.20R
SILVER BAY     SUNNY     37  28  70 W5        30.18R
GRAND MARAIS     N/A     34  30  85 E8        30.20R WCI  27
G MARAIS ARPRT LGT SNOW  30  23  74 N7        30.15R WCI  23
$$
MNZ029>031-032-039>041-046>048-054>057-064-172000-
   West Central Minnesota

CITY           SKY/WX    TMP DP  RH WIND       PRES   REMARKS
FERGUS FALLS   SUNNY     39   9  28 N5        30.27F
WHEATON        SUNNY     43  19  39 NW8       30.32F
MORRIS         MOSUNNY   39  19  45 N10       30.30S
ALEXANDRIA     SUNNY     37  16  42 N10       30.28S
ELBOW LAKE     FAIR      38  15  38 N7        30.29S
WADENA         SUNNY     37  12  35 N6        30.26S
GLENWOOD       MOSUNNY   37  19  48 N7        30.29S
APPLETON       MOSUNNY   39  21  48 NW8       30.32S
BENSON         MOSUNNY   37  21  52 N5        30.31F
ORTONVILLE     PTSUNNY   36  18  48 N3        30.32S
MADISON        MOSUNNY   39  25  56 NW6       30.32S
WILLMAR        FAIR      36  21  55 NW7       30.31S
$$
MNZ033>034-036-042>043-049>051-058-059-172000-
   Central Minnesota

CITY           SKY/WX    TMP DP  RH WIND       PRES   REMARKS
ST CLOUD       SUNNY     39  22  50 N7        30.27R
SAUK CENTRE    FAIR      36  22  56 NW8       30.29R
PAYNESVILLE    SUNNY     35  22  58 NW7       30.30R WCI  29
AITKIN         SUNNY     43  21  42 NW6       30.23S
PINE RIVER     SUNNY     39  21  48 NW9       30.27S
BRAINERD       SUNNY     43  22  43 N10       30.25S
STAPLES        SUNNY     39  19  45 NW7       30.25S
LONG PRAIRIE   FAIR      36  21  55 NW8       30.28R
LITTLE FALLS   SUNNY     37  19  48 CALM      30.26S
LITCHFIELD     SUNNY     36  27  69 NW7       30.29S
BUFFALO        MOSUNNY   37  24  59 NW5       30.29S
MAPLE LAKE     SUNNY     38  26  60 N5        30.28S
$$
MNZ037-044-045-052-053-172000-
   East Central Minnesota

CITY           SKY/WX    TMP DP  RH WIND       PRES   REMARKS
PRINCETON      SUNNY     37  25  60 NW5       30.27R
MORA           MOSUNNY   37  23  56 NW5       30.27S
CAMBRIDGE      MOSUNNY   37  25  60 N5        30.25R
RUSH CITY      CLOUDY    37  24  60 NW6       30.26S
MOOSE LAKE     CLOUDY    36  23  60 N8        30.23S
HINCKLEY       CLOUDY    37  27  65 N10       30.25S
CLOQUET        CLOUDY    36  25  64 NW12      30.22S
MCGREGOR       PTSUNNY   37  25  60 NE5       30.24S
$$
MNZ071>073-080-081-089-090-097-098-172000-
   Southwest Minnesota

CITY           SKY/WX    TMP DP  RH WIND       PRES   REMARKS
MONTEVIDEO     PTSUNNY   39  27  60 N9        30.32S
GRANITE FALLS  MOSUNNY   35  25  66 W9        30.33S WCI  27
CANBY          MOSUNNY   35  20  54 N7        30.33F WCI  29
MARSHALL       MOSUNNY   34  23  64 NW9       30.31F WCI  26
REDWOOD FALLS  MOSUNNY   34  27  75 W9        30.31S WCI  27
OLIVIA         SUNNY     34  28  80 NW8       30.30S WCI  27
PIPESTONE      MOSUNNY   36  18  48 NE10      30.29S
WINDOM         PTSUNNY   37  28  70 NW13      30.29S
WORTHINGTON    PTSUNNY   37  25  60 N8        30.31S
JACKSON        PTSUNNY   37  30  75 NW10      30.29R
TRACY          SUNNY     33  26  74 NW8       30.31F WCI  27
SLAYTON        SUNNY     34  25  69 N13       30.30S WCI  25
$$
MNZ065>067-074>077-082>085-091>093-172000-
   South Central Minnesota

CITY           SKY/WX    TMP DP  RH WIND       PRES   REMARKS
MANKATO        CLOUDY    36  27  69 NW12      30.29S
NEW ULM        MOSUNNY   37  28  70 N10G17    30.29S
ST JAMES       PTSUNNY   39  30  70 NW10      30.30S
FAIRMONT       CLOUDY    37  30  75 N10G17    30.31R
GLENCOE        MOSUNNY   37  26  66 NW6       30.29R
FARIBAULT      CLOUDY    37  28  70 NW7       30.27S
OWATONNA       CLOUDY    34  28  80 NW9       30.27R WCI  26
WASECA         CLOUDY    36  32  87 NW8       30.29R
ALBERT LEA     CLOUDY    36  28  75 NW7       30.27R
$$
MNZ078>079-086>088-094>096-172000-
   Southeast Minnesota

CITY           SKY/WX    TMP DP  RH WIND       PRES   REMARKS
ROCHESTER      CLOUDY    34  29  82 NW10      30.26R WCI  26
RED WING       CLOUDY    37  28  70 N9        30.25R
STANTON        CLOUDY    36  28  73 NW8       30.25S
DODGE CENTER   CLOUDY    37  32  81 NW10      30.25R
WINONA         CLOUDY    37  32  81 NW13      30.26R
AUSTIN         CLOUDY    34  28  80 NW10G16   30.27R WCI  26
PRESTON        CLOUDY    35  31  83 NW10      30.26R WCI  27
$$
ABBREVIATIONS USED IN REMARKS
   TC - TEMPERATURES IN CELSIUS
  WCI - WIND CHILL INDEX
   HX - HEAT INDEX
  VSB - VISIBILITY
$$


USA.gov is the U.S. government's official web portal to all federal, state and local government web resources and services.